Back to catalog

ERS 21

OV5-4

LostScienceGEO
NORAD 3430·PAYLOAD·🇺🇸 United States

Launched Sep 26, 1968 from Cape Canaveral Space Force Station

Loading…

TLE

StaleSource: Space-Track

Epoch: Jul 19, 1995, 00:00 UTC

1 03430U 68081  C 95200.00000000 -.00000320 +00000-0 +10000-3 0  9999
2 03430 013.5815 011.0544 0006806 079.3747 345.3932 01.00245239098302

Track ERS 21 in real time with AllMySat

Download on the App Store